COSMOS 1275 DEB, 42211

Orbit data source: Space-Track

COSMOS 1275 DEB, 42211 is space debris in LEO originally from a launch on Thu, 04 Jun 1981 UTC launched from the Plesetsk Missile And Space Complex (PKMTR). Debris objects in space refer to the collection of defunct objects orbiting the Earth. Examples of debris include non-operational satellites, rocket bodies, and fragments generated from explosions, collisions, or faulty payload assembly.

Loading next visibility...
Identifier
42211, 1981-053UB
Orbit
LEO
Country
Flag of CISCIS
Related business
Manufacturer
Unknown
Mission
Spacecraft
Bus & Motor
Unknown
Mass
Unknown
Launch date (UTC)
1981-06-04 (45 years ago)
Launch vehicle
Unknown
Launch site
Plesetsk Missile And Space Complex (PKMTR)
Object type
Payload
Rocket body
Debris
Shape & HBR
Unknown shape, 0.1 m
Radar Cross Section
Small (<0.1 m²)

Expand to show TLE details & history
Last TLE update: 3 days ago

TLE from 3 days ago
0 COSMOS 1275 DEB
1 42211U 81053UB  25338.34828295  .00008191  00000-0  36607-2 0  9992
2 42211  82.8409 201.1622 0040128 107.5857 252.9714 14.22119624 75863
Epoch: 2025-12-04T08:21Z
TLE epoch observation values (Epoch: 2025-12-04T08:21:31.646Z)
Latitude
-0.00012°
Longitude
2.37431°
Altitude
829.72 km
Speed
7.434 km/s
True Right ascension
13h 24m 38s
True Declination
0° 00' 00"
Sunlit
Object was in daylight at epoch
Visualization orbit readout
Latitude
Unknown
Longitude
Unknown
Altitude
Unknown
Speed
Unknown
Apparent Right ascension
Unknown
Apparent Declination
Unknown
Sunlit
N/A
Visualization observer readout
Local Sidereal Time
05:22:07
Azimuth
Unknown
Elevation
Unknown
Doppler factor
Unknown
Orbital elements
Apogee altitude
844.147 km
Perigee altitude
786.415 km
Semi-major axis
7,193.418 km
Eccentricity
0.00401
Inclination
82.8409°
RAAN
201.1622°
Arg. of periapsis
107.5857°
True anomaly
252.53238°
Mean anomaly
252.9714°
Eccentric anomaly
252.75182°
Mean motion
3.55746 °/min
Orbital period
101.2 mins
BSTAR
0.0036607
Loading maneuver chart data...
Computing Atmospheric mass density...
Loading historical data...
Loading historical data...
Loading historical data...
Loading historical data...
Loading historical data...
Loading historical data...
Loading historical data...

Documentation

Showing up to 5 results
|